When you browse on this site, cookies collect data to enhance your experience and personalize the content and advertising you see.
Visit our Privacy Policy to learn more. By continuing to use the site, you agree to this use of cookies and data.
  • In Portugal
  • List of Countries
  • For 7 days
  • Water Temperature
  • Satellite Maps
  • Weather Map
  • Weather Widgets
  • user-avatar
    Login

    Hourly Weather Kociolki

    Today, 25 May, Saturday

    Time Temperature Precipitation Wind Pressure Humidity
    00:00 +10°C° 0 mm 2 mps 738 mmHg 81%
    01:00 +9°C° 0 mm 2 mps 738 mmHg 79%
    02:00 +10°C° 0 mm 1 mps 738 mmHg 78%
    03:00 +9°C° 0 mm 2 mps 738 mmHg 77%
    04:00 +9°C° 0 mm 2 mps 738 mmHg 77%
    05:00 +9°C° 0 mm 2 mps 738 mmHg 76%
    06:00 +12°C° 0 mm 2 mps 738 mmHg 75%
    07:00 +13°C° 0 mm 3 mps 738 mmHg 74%
    08:00 +15°C° 0 mm 4 mps 738 mmHg 72%
    09:00 +17°C° 0 mm 4 mps 738 mmHg 69%
    10:00 +17°C° 0 mm 5 mps 738 mmHg 65%
    11:00 +19°C° 0 mm 5 mps 738 mmHg 62%
    12:00 +19°C° 0.3 mm 6 mps 738 mmHg 64%
    13:00 +19°C° 0.3 mm 6 mps 738 mmHg 66%
    14:00 +19°C° 0.3 mm 6 mps 738 mmHg 69%
    15:00 +17°C° 0 mm 6 mps 738 mmHg 69%
    16:00 +16°C° 0 mm 6 mps 737 mmHg 70%
    17:00 +15°C° 0 mm 6 mps 737 mmHg 71%
    18:00 +14°C° 0 mm 5 mps 738 mmHg 75%
    19:00 +12°C° 0 mm 4 mps 738 mmHg 79%
    20:00 +11°C° 0 mm 3 mps 738 mmHg 83%
    21:00 +10°C° 0 mm 3 mps 738 mmHg 87%
    22:00 +8°C° 0 mm 3 mps 738 mmHg 91%
    23:00 +7°C° 0 mm 3 mps 738 mmHg 94%

    Tomorrow, 26 May, Sunday

    Time Temperature Precipitation Wind Pressure Humidity
    00:00 +7°C° 0 mm 3 mps 738 mmHg 95%
    01:00 +5°C° 0 mm 3 mps 739 mmHg 96%
    02:00 +6°C° 0 mm 2 mps 739 mmHg 97%
    03:00 +6°C° 0 mm 2 mps 738 mmHg 96%
    04:00 +6°C° 0 mm 2 mps 738 mmHg 96%
    05:00 +6°C° 0 mm 2 mps 738 mmHg 96%
    06:00 +8°C° 0 mm 3 mps 738 mmHg 91%
    07:00 +10°C° 0 mm 4 mps 738 mmHg 85%
    08:00 +12°C° 0 mm 5 mps 738 mmHg 80%
    09:00 +13°C° 0 mm 5 mps 738 mmHg 76%
    10:00 +14°C° 0 mm 5 mps 738 mmHg 72%
    11:00 +15°C° 0 mm 6 mps 738 mmHg 69%
    12:00 +15°C° 0.1 mm 6 mps 738 mmHg 69%
    13:00 +15°C° 0.1 mm 6 mps 738 mmHg 69%
    14:00 +15°C° 0.1 mm 6 mps 737 mmHg 69%
    15:00 +15°C° 0.3 mm 6 mps 737 mmHg 72%
    16:00 +14°C° 0.3 mm 5 mps 737 mmHg 76%
    17:00 +14°C° 0.3 mm 5 mps 737 mmHg 79%
    18:00 +13°C° 0.1 mm 5 mps 737 mmHg 82%
    19:00 +13°C° 0.1 mm 4 mps 737 mmHg 86%
    20:00 +12°C° 0.1 mm 3 mps 737 mmHg 89%
    21:00 +12°C° 0 mm 3 mps 737 mmHg 89%
    22:00 +11°C° 0 mm 3 mps 737 mmHg 90%
    23:00 +11°C° 0 mm 3 mps 737 mmHg 91%

    Day after tomorrow, 27 May, Monday

    Time Temperature Precipitation Wind Pressure Humidity
    00:00 +11°C° 0.1 mm 3 mps 737 mmHg 91%
    01:00 +11°C° 0.1 mm 3 mps 737 mmHg 91%
    02:00 +12°C° 0.1 mm 4 mps 737 mmHg 92%
    03:00 +11°C° 0 mm 4 mps 737 mmHg 92%
    04:00 +11°C° 0 mm 3 mps 737 mmHg 93%
    05:00 +11°C° 0 mm 3 mps 736 mmHg 94%
    06:00 +12°C° 0 mm 4 mps 736 mmHg 92%
    07:00 +12°C° 0 mm 4 mps 736 mmHg 91%
    08:00 +13°C° 0 mm 5 mps 737 mmHg 90%
    09:00 +15°C° 0.1 mm 6 mps 736 mmHg 85%
    10:00 +16°C° 0.1 mm 7 mps 736 mmHg 80%
    11:00 +17°C° 0.1 mm 8 mps 736 mmHg 76%
    12:00 +18°C° 0.2 mm 7 mps 736 mmHg 74%
    13:00 +20°C° 0.2 mm 7 mps 736 mmHg 72%
    14:00 +20°C° 0.2 mm 7 mps 736 mmHg 70%
    15:00 +20°C° 0.5 mm 6 mps 736 mmHg 72%
    16:00 +20°C° 0.5 mm 5 mps 736 mmHg 75%
    17:00 +20°C° 0.5 mm 4 mps 736 mmHg 77%
    18:00 +19°C° 0.6 mm 3 mps 736 mmHg 82%
    19:00 +18°C° 0.6 mm 3 mps 736 mmHg 86%
    20:00 +17°C° 0.6 mm 2 mps 736 mmHg 91%
    21:00 +16°C° 0.3 mm 2 mps 736 mmHg 92%
    22:00 +15°C° 0.3 mm 2 mps 736 mmHg 93%
    23:00 +14°C° 0.3 mm 3 mps 736 mmHg 94%

    28 May, Tuesday

    Time Temperature Precipitation Wind Pressure Humidity
    00:00 +13°C° 0 mm 3 mps 736 mmHg 95%
    01:00 +13°C° 0 mm 3 mps 737 mmHg 96%
    02:00 +13°C° 0 mm 3 mps 737 mmHg 97%
    03:00 +13°C° 0 mm 2 mps 737 mmHg 96%
    04:00 +12°C° 0 mm 2 mps 737 mmHg 95%
    05:00 +12°C° 0 mm 2 mps 737 mmHg 94%
    06:00 +12°C° 0 mm 1 mps 737 mmHg 90%
    07:00 +13°C° 0 mm 1 mps 738 mmHg 86%
    08:00 +14°C° 0 mm 1 mps 738 mmHg 82%
    09:00 +15°C° 0.1 mm 1 mps 738 mmHg 81%
    10:00 +15°C° 0.1 mm 1 mps 738 mmHg 80%
    11:00 +16°C° 0.1 mm 2 mps 738 mmHg 79%
    12:00 +15°C° 0.6 mm 2 mps 738 mmHg 82%
    13:00 +15°C° 0.6 mm 2 mps 737 mmHg 85%
    14:00 +15°C° 0.6 mm 2 mps 737 mmHg 88%
    15:00 +15°C° 0.1 mm 2 mps 737 mmHg 89%
    16:00 +13°C° 0.1 mm 3 mps 737 mmHg 90%
    17:00 +13°C° 0.1 mm 3 mps 737 mmHg 91%
    18:00 +13°C° 0 mm 3 mps 737 mmHg 91%
    19:00 +13°C° 0 mm 3 mps 737 mmHg 91%
    20:00 +13°C° 0 mm 3 mps 737 mmHg 91%
    21:00 +12°C° 0.8 mm 3 mps 737 mmHg 92%
    22:00 +12°C° 0.8 mm 3 mps 737 mmHg 94%
    23:00 +12°C° 0.8 mm 4 mps 737 mmHg 95%

    29 May, Wednesday

    Time Temperature Precipitation Wind Pressure Humidity
    00:00 +12°C° 0.6 mm 4 mps 737 mmHg 95%
    01:00 +12°C° 0.6 mm 4 mps 736 mmHg 96%
    02:00 +12°C° 0.6 mm 4 mps 736 mmHg 96%
    03:00 +10°C° 1.4 mm 5 mps 736 mmHg 96%
    04:00 +10°C° 1.4 mm 5 mps 736 mmHg 96%
    05:00 +10°C° 1.4 mm 5 mps 736 mmHg 96%
    06:00 +9°C° 0.2 mm 5 mps 737 mmHg 95%
    07:00 +9°C° 0.2 mm 5 mps 737 mmHg 94%
    08:00 +9°C° 0.2 mm 6 mps 738 mmHg 94%
    09:00 +9°C° 0.1 mm 6 mps 738 mmHg 92%
    10:00 +9°C° 0.1 mm 6 mps 739 mmHg 91%
    11:00 +9°C° 0.1 mm 6 mps 739 mmHg 89%
    12:00 +10°C° 0 mm 5 mps 740 mmHg 85%
    13:00 +12°C° 0 mm 5 mps 741 mmHg 81%
    14:00 +13°C° 0 mm 4 mps 741 mmHg 77%
    15:00 +13°C° 0 mm 5 mps 742 mmHg 73%
    16:00 +13°C° 0 mm 6 mps 742 mmHg 70%
    17:00 +13°C° 0 mm 6 mps 743 mmHg 66%
    18:00 +11°C° 0 mm 6 mps 743 mmHg 69%
    19:00 +9°C° 0 mm 5 mps 744 mmHg 72%
    20:00 +7°C° 0 mm 4 mps 744 mmHg 75%
    21:00 +6°C° 0 mm 4 mps 745 mmHg 77%
    22:00 +5°C° 0 mm 4 mps 745 mmHg 78%
    23:00 +4°C° 0 mm 3 mps 746 mmHg 80%

    30 May, Thursday

    Time Temperature Precipitation Wind Pressure Humidity
    00:00 +3°C° 0 mm 3 mps 746 mmHg 83%
    01:00 +3°C° 0 mm 3 mps 747 mmHg 86%
    02:00 +2°C° 0 mm 3 mps 747 mmHg 89%
    03:00 +2°C° 0 mm 3 mps 747 mmHg 90%
    04:00 +2°C° 0 mm 3 mps 748 mmHg 91%
    05:00 +3°C° 0 mm 3 mps 748 mmHg 92%
    06:00 +6°C° 0 mm 2 mps 748 mmHg 87%
    07:00 +8°C° 0 mm 2 mps 748 mmHg 81%
    08:00 +12°C° 0 mm 2 mps 749 mmHg 75%
    09:00 +13°C° 0 mm 2 mps 748 mmHg 67%
    10:00 +15°C° 0 mm 2 mps 748 mmHg 60%
    11:00 +16°C° 0 mm 2 mps 748 mmHg 52%
    12:00 +16°C° 0 mm 2 mps 748 mmHg 50%
    13:00 +17°C° 0 mm 2 mps 748 mmHg 49%
    14:00 +18°C° 0 mm 2 mps 748 mmHg 47%
    15:00 +18°C° 0 mm 2 mps 747 mmHg 48%
    16:00 +18°C° 0 mm 2 mps 747 mmHg 49%
    17:00 +18°C° 0 mm 2 mps 746 mmHg 50%
    18:00 +16°C° 0 mm 2 mps 746 mmHg 57%
    19:00 +15°C° 0 mm 2 mps 746 mmHg 63%
    20:00 +14°C° 0 mm 2 mps 746 mmHg 70%
    21:00 +12°C° 0 mm 2 mps 745 mmHg 71%
    22:00 +10°C° 0 mm 3 mps 745 mmHg 72%
    23:00 +9°C° 0 mm 3 mps 745 mmHg 73%
    Show more